This is the latest recevied weather packets stored in our database for station/object WA6ODQ-13. If no packets are shown the sender has not sent any weather packets the latest 10 day(s).
| Time | Temp. | Humidity | Pressure | Rain* | Wind** | Luminosity | Snow |
|---|---|---|---|---|---|---|---|
| 1788396569 | 24.44° C | 49% | 1013.4 hPa | 0 mm | - | 156 W/m² | - |
| 1788396263 | 25° C | 48% | 1013.5 hPa | 0 mm | - | 171 W/m² | - |
| 1788395954 | 25° C | 48% | 1013.1 hPa | 0 mm | - | 186 W/m² | - |
| 1788395654 | 25° C | 47% | 1013.6 hPa | 0 mm | - | 199 W/m² | - |
| 1788395354 | 25.56° C | 44% | 1013.6 hPa | 0 mm | - | 216 W/m² | - |
| 1788395049 | 25.56° C | 44% | 1013.7 hPa | 0 mm | - | 208 W/m² | - |
| 1788394749 | 25° C | 47% | 1013.8 hPa | 0 mm | - | 241 W/m² | - |
| 1788394444 | 25.56° C | 44% | 1013.9 hPa | 0 mm | - | 245 W/m² | - |
| 1788394143 | 25.56° C | 43% | 1013.7 hPa | 0 mm | - | 276 W/m² | - |
| 1788393839 | 25° C | 44% | 1013.5 hPa | 0 mm | - | 290 W/m² | - |
| 1788393537 | 25° C | 45% | 1013.9 hPa | 0 mm | - | 282 W/m² | - |
| 1788393232 | 26.11° C | 45% | 1013.8 hPa | 0 mm | - | 292 W/m² | - |
| 1788392931 | 25.56° C | 45% | 1014 hPa | 0 mm | - | 320 W/m² | - |
| 1788392626 | 25° C | 47% | 1013.9 hPa | 0 mm | - | 334 W/m² | - |
| 1788392324 | 25.56° C | 47% | 1013.8 hPa | 0 mm | - | 348 W/m² | - |
| 1788392019 | 25.56° C | 46% | 1013.8 hPa | 0 mm | - | 352 W/m² | - |
| 1788391718 | 25° C | 47% | 1013.9 hPa | 0 mm | - | 374 W/m² | - |
| 1788391413 | 25° C | 48% | 1013.8 hPa | 0 mm | - | 387 W/m² | - |
| 1788391107 | 25.56° C | 47% | 1014.2 hPa | 0 mm | - | 400 W/m² | - |
| 1788390802 | 25° C | 48% | 1014.2 hPa | 0 mm | - | 415 W/m² | - |
| 1788390497 | 25° C | 48% | 1014.1 hPa | 0 mm | - | 426 W/m² | - |
| 1788390196 | 25° C | 48% | 1013.9 hPa | 0 mm | - | 439 W/m² | - |
| 1788389891 | 25° C | 49% | 1014.2 hPa | 0 mm | - | 451 W/m² | - |
| 1788389586 | 25° C | 48% | 1014.1 hPa | 0 mm | - | 465 W/m² | - |
| 1788389284 | 25° C | 47% | 1014.2 hPa | 0 mm | - | 478 W/m² | - |
* Rain latest hour (hover to see other rain measurements)
** Current wind speed in m/s (hover to see current wind gust speed)